Bennington, VT

4:03 PM EDT on March 23, 2017 (GMT -0400)
Morse State

Weather History for KDDH - January, 2013

Change the Weather History Date:

Wednesday, January 2, 2013

  Actual Average Record
Temperature  
Mean Temperature 10 °F 22 °F  
Max Temperature 23 °F 31 °F 37 °F (2017)
Min Temperature -4 °F 13 °F 17 °F (2017)
Degree Days  
Heating Degree Days 55 43  
Month to date heating degree days 103 86  
Since 1 July heating degree days 2548 2858  
Cooling Degree Days 0 0  
Month to date cooling degree days 0 0  
Year to date cooling degree days 0 0  
Moisture  
Dew Point 4 °F    
Average Humidity 72    
Maximum Humidity 87    
Minimum Humidity 56    
Precipitation  
Precipitation T in 0.12 in 0.00 in (2017)
Month to date precipitation T 0.24  
Year to date precipitation T 0.24  
Sea Level Pressure  
Sea Level Pressure 30.01 in    
Wind  
Wind Speed 4 mph (NW)    
Max Wind Speed 17 mph    
Max Gust Speed 24 mph    
Visibility 8 miles    
Events Snow    
T = Trace of Precipitation, MM = Missing Value Source: NWS Daily Summary

Daily Weather History Graph

Daily Weather History Graph

Search for Another Location

Airport or City:

Trip Planner

Search our weather history database for the weather conditions in past years. The results will help you decide how hot, cold, wet, or windy it might be!

Date:

Astronomy

Jan. 02, 2013 Rise Set
Actual Time 7:24 AM EST 4:30 PM EST
Civil Twilight 6:51 AM EST 5:02 PM EST
Nautical Twilight 6:16 AM EST 5:38 PM EST
Astronomical Twilight 5:42 AM EST 6:12 PM EST
Moon 10:08 PM EST (1/2) 9:56 AM EST (1/2)
Length of Visible Light 10h 10m
Length of Day
9h 06m
Waning Gibbous, 75% of the Moon is Illuminated
Jan 2
Waning Gibbous
Jan 4
Last Quarter
Jan 11
New
Jan 18
First Quarter
Jan 26
Full

Hourly Weather History & Observations

Time (EST) Temp. Windchill Dew Point Humidity Pressure Visibility Wind Dir Wind Speed Gust Speed Precip Events Conditions
12:54 AM 1.9 °F - -2.9 °F 80% 29.96 in 10.0 mi Calm Calm - N/A   Clear
1:54 AM 1.0 °F - -2.9 °F 83% 29.98 in 10.0 mi Calm Calm - N/A   Clear
2:54 AM 1.9 °F - -2.0 °F 83% 29.97 in 10.0 mi Calm Calm - N/A   Clear
3:54 AM -0.9 °F - -6.0 °F 79% 29.97 in 8.0 mi Calm Calm - N/A   Clear
4:54 AM -2.9 °F -13.3 °F -8.0 °F 79% 29.96 in 10.0 mi NW 4.6 mph - N/A   Mostly Cloudy
5:54 AM 3.0 °F -4.4 °F -2.0 °F 80% 29.96 in 10.0 mi Variable 3.5 mph - N/A   Overcast
6:54 AM 5.0 °F - 1.0 °F 84% 29.95 in 10.0 mi Calm Calm - N/A   Overcast
7:54 AM 5.0 °F - 1.0 °F 84% 29.94 in 8.0 mi Calm Calm - N/A   Overcast
8:54 AM 9.0 °F - 5.0 °F 84% 29.96 in 5.0 mi Calm Calm - N/A   Overcast
9:54 AM 16.0 °F 10.4 °F 9.0 °F 74% 29.97 in 8.0 mi NNE 3.5 mph - 0.00 in   Overcast
10:54 AM 19.9 °F 8.6 °F 10.9 °F 68% 29.97 in 10.0 mi WNW 10.4 mph 19.6 mph N/A   Overcast
11:54 AM 21.0 °F 8.6 °F 12.0 °F 68% 29.95 in 10.0 mi West 12.7 mph 20.7 mph N/A   Overcast
12:54 PM 21.9 °F 11.0 °F 12.9 °F 68% 29.95 in 10.0 mi West 10.4 mph 21.9 mph N/A   Overcast
1:54 PM 23.0 °F 13.1 °F 14.0 °F 68% 29.96 in 3.0 mi WNW 9.2 mph 18.4 mph 0.00 in Snow Light Snow
2:03 PM 23.0 °F 12.4 °F 14.0 °F 68% 29.92 in 2.5 mi WNW 10.4 mph - 0.00 in Snow Light Snow
2:17 PM 21.2 °F 10.9 °F 15.8 °F 80% 29.93 in 1.5 mi NW 9.2 mph - 0.00 in Snow Light Snow
2:42 PM 23.0 °F 14.7 °F 15.8 °F 74% 29.93 in 3.0 mi NW 6.9 mph - 0.00 in Snow Light Snow
2:54 PM 21.9 °F 14.5 °F 15.1 °F 75% 29.99 in 10.0 mi NNW 5.8 mph - 0.00 in   Overcast
4:12 PM 21.2 °F 13.6 °F 14.0 °F 74% 29.97 in 10.0 mi NW 5.8 mph - N/A   Overcast
4:54 PM 19.9 °F 11.1 °F 7.0 °F 57% 30.05 in 10.0 mi NNW 6.9 mph - N/A   Partly Cloudy
5:54 PM 16.0 °F 5.3 °F 5.0 °F 62% 30.08 in 10.0 mi WNW 8.1 mph - N/A   Clear
6:54 PM 12.9 °F 0.7 °F 3.0 °F 65% 30.11 in 10.0 mi NW 9.2 mph - N/A   Clear
7:54 PM 9.0 °F -2.2 °F -0.0 °F 67% 30.12 in 10.0 mi NW 6.9 mph - N/A   Clear
8:54 PM 7.0 °F -4.5 °F -2.9 °F 64% 30.14 in 10.0 mi WNW 6.9 mph - N/A   Clear
9:54 PM 3.9 °F -3.4 °F -5.1 °F 66% 30.17 in 10.0 mi WNW 3.5 mph - N/A   Clear
10:54 PM 1.9 °F - -6.0 °F 69% 30.18 in 10.0 mi Calm Calm - N/A   Clear
11:54 PM -2.0 °F - -8.0 °F 76% 30.21 in 10.0 mi Calm Calm - N/A   Clear